This is the latest recevied weather packets stored in our database for station/object F5SGY-10. If no packets are shown the sender has not sent any weather packets the latest 10 day(s).
| Time | Temp. | Humidity | Pressure | Rain* | Wind** | Luminosity | Snow |
|---|---|---|---|---|---|---|---|
| 1778018339 | 22.78° C | 41% | 973 hPa | - | - | - | - |
| 1778017439 | 22.78° C | 41% | 973.1 hPa | - | - | - | - |
| 1778016539 | 22.78° C | 41% | 973.2 hPa | - | - | - | - |
| 1778015639 | 22.78° C | 41% | 973.3 hPa | - | - | - | - |
| 1778014739 | 22.78° C | 42% | 973.3 hPa | - | - | - | - |
| 1778013839 | 23.33° C | 41% | 973.4 hPa | - | - | - | - |
| 1778012938 | 23.33° C | 41% | 973.3 hPa | - | - | - | - |
| 1778012038 | 23.33° C | 41% | 973.2 hPa | - | - | - | - |
| 1778011138 | 23.89° C | 40% | 973 hPa | - | - | - | - |
| 1778010238 | 23.89° C | 41% | 972.8 hPa | - | - | - | - |
| 1778009338 | 23.89° C | 41% | 972.7 hPa | - | - | - | - |
| 1778008438 | 24.44° C | 41% | 972.7 hPa | - | - | - | - |
| 1778007538 | 24.44° C | 41% | 972.6 hPa | - | - | - | - |
| 1778006638 | 24.44° C | 41% | 972.5 hPa | - | - | - | - |
| 1778005737 | 24.44° C | 41% | 972.4 hPa | - | - | - | - |
| 1778004837 | 24.44° C | 41% | 972.2 hPa | - | - | - | - |
| 1778003937 | 24.44° C | 41% | 972.2 hPa | - | - | - | - |
| 1778003037 | 24.44° C | 40% | 972.4 hPa | - | - | - | - |
| 1778002137 | 24.44° C | 40% | 972.3 hPa | - | - | - | - |
| 1778001237 | 24.44° C | 40% | 972.3 hPa | - | - | - | - |
| 1778000337 | 23.89° C | 41% | 972.4 hPa | - | - | - | - |
| 1777999437 | 23.89° C | 42% | 972.5 hPa | - | - | - | - |
| 1777998537 | 23.33° C | 42% | 972.4 hPa | - | - | - | - |
| 1777997637 | 22.78° C | 42% | 972.4 hPa | - | - | - | - |
| 1777996737 | 22.78° C | 41% | 972.4 hPa | - | - | - | - |
* Rain since midnight (hover to see other rain measurements)
** Current wind speed in m/s (hover to see current wind gust speed)